Regional Weather Roundup
Issued by NWS

Home | Current Version | Previous Version | Graphics & Text | Print | Product List | Glossary Off
Versions: 1 2 3 4 5 6 7 8 9 10 11 12 13 14 15 16 17 18 19 20 21 22 23 24 25 26 27 28 29 30 31 32 33 34 35 36 37 38 39 40 41 42 43 44 45 46 47 48 49 50

000
ASUS43 KOAX 200810
RWRNE

WEATHER ROUNDUP FOR NEBRASKA
NATIONAL WEATHER SERVICE OMAHA NE
200 AM CST TUE FEB 20 2018

NOTES: SATELLITE DATA IS BEING USED TO AUGMENT CLOUD COVER ABOVE
       12000 FEET.
       "FAIR" INDICATES FEW OR NO CLOUDS BELOW 12,000 FEET WITH NO
       SIGNIFICANT WEATHER AND/OR OBSTRUCTIONS TO VISIBILITY.


NEZ001>004-019>022-054>056-200900-
NEBRASKA PANHANDLE

CITY           SKY/WX    TMP DP  RH WIND       PRES   REMARKS
SCOTTSBLUFF    CLOUDY     1  -7  68 NW6       29.92R WCI -10
ALLIANCE       FLURRIES  -2  -7  79 N10       29.88F WCI -19
CHADRON        FLURRIES   0  -6  76 N6        29.98R WCI -12
GORDON         CLOUDY     0  -6  76 NW12G18   29.92R WCI -18
KIMBALL        CLOUDY    -2  -7  80 N10       29.82R WCI -19
SIDNEY         LGT SNOW  -1  -6  79 N14       29.87S WCI -20
$$

NEZ057>060-069>072-079>082-200900-
SOUTHWEST NEBRASKA

CITY           SKY/WX    TMP DP  RH WIND       PRES   REMARKS
NORTH PLATTE   LGT SNOW   6  -1  73 N13       29.92R WCI -10
IMPERIAL       CLOUDY     5   0  79 N16       29.89R WCI -14
LEXINGTON      CLOUDY    12   6  77 N18       29.90R WCI  -5
MCCOOK         CLOUDY    10   5  80 N17       29.91R WCI  -8
OGALLALA       FLURRIES   6  -1  74 N15       29.92R WCI -12
$$

NEZ005>010-023>029-035>040-094-200900-
NORTH CENTRAL NEBRASKA

CITY           SKY/WX    TMP DP  RH WIND       PRES   REMARKS
VALENTINE      LGT SNOW   3  -3  76 N17G25    29.92F WCI -17
AINSWORTH      LGT SNOW   4   1  85 N17       29.91F WCI -15
BROKEN BOW     FLURRIES   8   2  76 N21       29.87F WCI -12
O`NEILL        LGT SNOW   7   5  89 NW14      29.93S VSB 3/4 WCI -10
ORD            LGT SNOW  10   6  84 N13       29.90F FOG     WCI  -5
THEDFORD       CLOUDY     5   0  79 N15       29.88S WCI -13
$$

NEZ041-046>049-061>064-073>077-083>087-200900-
SOUTH CENTRAL NEBRASKA

CITY           SKY/WX    TMP DP  RH WIND       PRES   REMARKS
GRAND ISLAND   FLURRIES  14   9  80 N14       29.91R WCI  -1
AURORA         LGT SNOW  15  11  87 N15       29.91R WCI  -1
HASTINGS       LGT SNOW  13   9  84 N14       29.90R FOG     WCI  -2
HEBRON         CLOUDY    19  17  91 NW9       29.90S FOG     WCI   8
HOLDREGE       FLURRIES  12   8  84 N14       29.89R WCI  -4
KEARNEY        FLURRIES  11   7  84 N16       29.91R WCI  -6
YORK           LGT SNOW  16  16 100 N14       29.91R WCI   1
$$

NEZ011>018-030>034-042>045-200900-
NORTHEAST NEBRASKA

CITY           SKY/WX    TMP DP  RH WIND       PRES   REMARKS
NORFOLK        LGT SNOW  13  10  88 NW12      29.90R FOG     WCI  -1
ALBION         CLOUDY    13   9  81 N14       29.91S WCI  -2
BLAIR          CLOUDY    22  19  91 NW5       29.87R FOG     WCI  15
COLUMBUS       FLURRIES  16  12  84 NW14      29.92R WCI   2
FREMONT        CLOUDY    20  19  93 NW10      29.90R FOG     WCI   9
TEKAMAH        FRZ RAIN  20  18  92 NW15      29.90R FOG     WCI   6
WAYNE          FLURRIES  16  14  93 NW9       29.90S WCI   4
$$

NEZ050>053-065>068-078-088>093-200900-
SOUTHEAST NEBRASKA

CITY           SKY/WX    TMP DP  RH WIND       PRES   REMARKS
LINCOLN        LGT SNOW  21  19  92 NW13      29.91R FOG     WCI   9
OMAHA EPPLEY   FLURRIES  22  18  85 N14       29.89R WCI   9
BEATRICE       CLOUDY    23  21  93 N13       29.88S FOG     WCI  11
FALLS CITY     FRZ RAIN  27  24  89 N9        29.84S FOG     WCI  18
NEBRASKA CITY  CLOUDY    24  24 100 NW7       29.87R WCI  16
PLATTSMOUTH    CLOUDY    23  21  93 W10       29.87R WCI  13
$$

NEZ044-045-051>053-067-200900-
OMAHA AREA

CITY           SKY/WX    TMP DP  RH WIND       PRES   REMARKS
OMAHA EPPLEY   FLURRIES  22  18  85 N14       29.89R WCI   9
BLAIR          CLOUDY    22  19  91 NW5       29.87R FOG     WCI  15
FREMONT        CLOUDY    20  19  93 NW10      29.90R FOG     WCI   9
MILLARD        LGT SNOW  24  20  86 NW10      29.90R WCI  13
OFFUTT AFB     CLOUDY    23  19  86 NW10      29.89R WCI  12
PLATTSMOUTH    CLOUDY    23  21  93 W10       29.87R WCI  13
WAHOO          LGT SNOW  21  18  89 NW13      29.90R WCI   9
$$




USA.gov is the U.S. government's official web portal to all federal, state and local government web resources and services.